Back to catalog

STARLINK-34334

AliveCommunicationsVLEO
NORAD 64273·PAYLOAD·🇺🇸 United States

Launched Jun 4, 2025 from Vandenberg Space Force Base

Loading…

Next Passes (next 24 hours)

TLE

FreshSource: CelesTrak SupGP

Epoch: Sep 14, 2026, 22:44 UTC

1 64273C 25120T   26257.94770833  .00030570  00000+0  90356-3 0  2572
2 64273  53.1577 315.3135 0001212  90.5708 311.4748 15.34362154    11

Track STARLINK-34334 in real time with AllMySat

Download on the App Store